CDT,Max TemperatureF,Mean TemperatureF,Min TemperatureF,Max Dew PointF,MeanDew PointF,Min DewpointF,Max Humidity, Mean Humidity, Min Humidity, Max Sea Level PressureIn, Mean Sea Level PressureIn, Min Sea Level PressureIn, Max VisibilityMiles, Mean VisibilityMiles, Min VisibilityMiles, Max Wind SpeedMPH, Mean Wind SpeedMPH, Max Gust SpeedMPH,PrecipitationIn, CloudCover, Events, WindDirDegrees
2013-3-1,28,19,8,16,13,5,92,71,55,30.30,30.27,30.20,10,10,10,14,10,20,0.00,3,,30
2013-3-2,28,13,-2,14,5,-6,92,69,34,30.30,30.24,30.14,10,10,10,7,2,,0.00,1,,336
2013-3-3,28,14,0,7,1,-8,92,57,28,30.14,30.07,30.01,10,10,10,9,3,,0.00,1,,112
2013-3-4,28,22,17,18,8,-6,80,52,33,30.05,30.01,29.97,10,9,3,16,8,22,0.00,7,Snow,110
2013-3-5,26,22,15,23,20,12,93,86,80,30.23,30.08,29.99,10,5,1,17,8,21,0.03,8,Snow,42
2013-3-6,26,14,1,18,11,-2,93,78,59,30.35,30.30,30.24,10,10,3,14,7,,0.00,2,,315
2013-3-7,30,12,-5,18,6,-9,93,72,51,30.38,30.33,30.29,10,10,0,9,1,,0.00,0,Fog,152
2013-3-8,35,24,14,27,20,10,86,76,68,30.32,30.25,30.11,10,10,10,13,6,,0.00,1,,140
2013-3-9,33,32,30,32,30,23,100,93,69,30.11,29.86,29.72,10,3,0,15,8,18,0.13,7,Fog-Rain-Snow,133
2013-3-10,33,30,28,32,29,25,100,88,80,29.93,29.84,29.74,10,9,0,21,11,31,0.00,8,Fog-Snow,13
2013-3-11,28,27,26,27,23,19,93,81,69,29.82,29.73,29.68,10,9,1,18,13,25,0.00,8,Snow,355
2013-3-12,28,22,15,21,15,9,93,75,43,30.10,29.87,29.75,10,9,2,21,9,24,0.00,6,Snow,315
2013-3-13,30,21,12,9,6,3,73,54,34,30.29,30.23,30.10,10,10,10,14,9,,0.00,0,,298
2013-3-14,33,24,14,27,19,9,93,81,73,30.22,30.11,29.98,10,9,1,10,5,,0.00,4,Snow,176
2013-3-15,32,26,21,28,22,18,100,84,60,29.97,29.90,29.86,10,6,1,15,6,18,0.00,7,Snow,36
2013-3-16,24,18,12,18,9,1,93,68,50,30.17,30.02,29.88,10,9,1,16,10,25,0.00,3,Snow,337
2013-3-17,23,9,-5,12,2,-9,85,62,43,30.22,30.11,29.90,10,10,10,16,8,22,0.00,3,,106
2013-3-18,28,21,14,23,16,9,93,82,68,29.90,29.65,29.54,10,4,0,24,14,34,0.01,8,Snow,187
2013-3-19,23,14,6,9,3,-6,79,61,43,30.05,29.87,29.64,10,8,3,26,20,36,0.00,2,Snow,294
2013-3-20,19,11,3,5,-1,-6,78,60,46,30.07,30.05,30.01,10,10,7,20,13,26,0.00,3,,312
2013-3-21,26,10,-5,12,2,-9,85,70,47,30.06,30.03,29.99,10,10,7,7,2,,0.00,1,Snow,289
2013-3-22,32,16,1,18,9,-4,92,69,44,30.06,30.02,29.99,10,10,10,12,2,,0.00,0,,245
2013-3-23,33,22,10,21,17,9,93,73,56,30.13,30.08,30.03,10,10,7,10,2,,0.00,2,,54
2013-3-24,32,26,19,23,19,14,86,74,64,30.08,30.01,29.94,10,10,10,16,8,23,0.00,5,,27
2013-3-25,33,25,17,21,18,12,93,71,52,30.16,30.07,29.99,10,10,10,17,9,23,0.00,4,,350
2013-3-26,35,30,26,23,21,19,80,68,52,30.25,30.21,30.16,10,10,10,7,3,,0.00,8,,332
2013-3-27,37,32,26,23,19,14,80,60,38,30.30,30.28,30.26,10,10,10,6,1,,0.00,6,,242
2013-3-28,37,26,14,23,18,10,93,67,48,30.33,30.29,30.26,10,10,10,8,2,,0.00,0,,220
2013-3-29,41,28,15,28,22,12,86,72,53,30.28,30.22,30.09,10,10,10,12,3,,0.00,3,,159
2013-3-30,41,37,33,36,33,28,100,90,75,30.09,29.88,29.78,10,6,1,15,7,18,0.33,6,Rain-Thunderstorm,226
2013-3-31,33,28,23,30,22,12,93,71,41,30.00,29.80,29.72,10,9,2,24,12,30,0.00,5,Snow,302